Windsor, CA

11:49 AM PDT on July 26, 2016 (GMT -0700)
Sonoma County

Weather History for KSTS - July, 2014

Change the Weather History Date:

Monday, July 14, 2014

  Actual Average Record
Temperature  
Mean Temperature 74 °F 68 °F  
Max Temperature 94 °F 83 °F 97 °F (2009)
Min Temperature 53 °F 52 °F 48 °F (2011)
Degree Days  
Heating Degree Days 0    
Month to date heating degree days 0  
Since 1 June heating degree days 29  
Since 1 July heating degree days 0  
Cooling Degree Days 9    
Month to date cooling degree days 37  
Year to date cooling degree days 173  
Since 1 June cooling degree days 115  
Growing Degree Days 22 (Base 50)    
Moisture  
Dew Point 52 °F    
Average Humidity 59    
Maximum Humidity 93    
Minimum Humidity 24    
Precipitation  
Precipitation 0.00 in 0.00 in 0.00 in (2016)
Month to date precipitation T 0.01  
Year to date precipitation 12.57 22.10  
Since 1 July precipitation T  
Sea Level Pressure  
Sea Level Pressure 29.85 in    
Wind  
Wind Speed 4 mph (South)    
Max Wind Speed 16 mph    
Max Gust Speed 21 mph    
Visibility 10 miles    
Events      
T = Trace of Precipitation, MM = Missing Value Source: NWS Daily Summary

Daily Weather History Graph

Daily Weather History Graph

Search for Another Location

Airport or City:

Trip Planner

Search our weather history database for the weather conditions in past years. The results will help you decide how hot, cold, wet, or windy it might be!

Date:

Astronomy

Jul. 14, 2014 Rise Set
Actual Time 5:58 AM PDT 8:35 PM PDT
Civil Twilight 5:27 AM PDT 9:06 PM PDT
Nautical Twilight 4:49 AM PDT 9:44 PM PDT
Astronomical Twilight 4:05 AM PDT 10:27 PM PDT
Moon 10:11 PM PDT (7/14) 8:45 AM PDT (7/14)
Length of Visible Light 15h 38m
Length of Day
14h 36m
Waning Gibbous, 92% of the Moon is Illuminated
Jul 14
Waning Gibbous
Jul 18
Last Quarter
Jul 26
New
Aug 3
First Quarter
Aug 10
Full

Hourly Weather History & Observations

Time (PDT) Temp. Heat Index Dew Point Humidity Pressure Visibility Wind Dir Wind Speed Gust Speed Precip Events Conditions
12:53 AM 59.0 °F - 52.0 °F 78% 29.84 in 10.0 mi Calm Calm - N/A   Clear
1:53 AM 57.9 °F - 52.0 °F 81% 29.83 in 10.0 mi Calm Calm - N/A   Clear
2:53 AM 55.0 °F - 52.0 °F 89% 29.83 in 10.0 mi Calm Calm - N/A   Clear
3:53 AM 55.0 °F - 51.1 °F 86% 29.83 in 10.0 mi Calm Calm - N/A   Clear
4:53 AM 55.0 °F - 50.0 °F 83% 29.82 in 10.0 mi Calm Calm - N/A   Clear
5:53 AM 53.1 °F - 51.1 °F 93% 29.82 in 9.0 mi Calm Calm - N/A   Clear
6:53 AM 55.0 °F - 52.0 °F 89% 29.83 in 9.0 mi Calm Calm - N/A   Partly Cloudy
7:53 AM 60.1 °F - 53.1 °F 78% 29.85 in 10.0 mi Calm Calm - N/A   Partly Cloudy
8:53 AM 66.9 °F - 53.1 °F 61% 29.85 in 10.0 mi Calm Calm - N/A   Clear
9:53 AM 77.0 °F - 52.0 °F 42% 29.84 in 10.0 mi Calm Calm - N/A   Scattered Clouds
10:53 AM 82.0 °F 81.2 °F 53.1 °F 37% 29.84 in 10.0 mi Variable 3.5 mph - N/A   Scattered Clouds
11:53 AM 87.1 °F - 51.1 °F 29% 29.83 in 10.0 mi South 4.6 mph - N/A   Scattered Clouds
1:53 PM 91.9 °F 89.5 °F 53.1 °F 27% 29.83 in 10.0 mi South 11.5 mph - N/A   Scattered Clouds
3:53 PM 84.9 °F - 51.1 °F 31% 29.85 in 10.0 mi South 11.5 mph - N/A   Scattered Clouds
4:53 PM 82.0 °F - 51.1 °F 34% 29.84 in 10.0 mi South 6.9 mph - N/A   Scattered Clouds
5:53 PM 73.9 °F - 54.0 °F 50% 29.84 in 10.0 mi South 11.5 mph - N/A   Clear
6:53 PM 68.0 °F - 53.1 °F 59% 29.85 in 10.0 mi SSE 8.1 mph - N/A   Mostly Cloudy
7:53 PM 66.0 °F - 52.0 °F 60% 29.87 in 10.0 mi South 11.5 mph - N/A   Clear
8:53 PM 62.1 °F - 53.1 °F 72% 29.91 in 10.0 mi South 8.1 mph - N/A   Clear
9:53 PM 62.1 °F - 54.0 °F 75% 29.91 in 10.0 mi Calm Calm - N/A   Clear
10:53 PM 63.0 °F - 54.0 °F 72% 29.91 in 10.0 mi Calm Calm - N/A   Clear
11:53 PM 61.0 °F - 54.0 °F 78% 29.90 in 10.0 mi SE 3.5 mph - N/A   Clear